Regional Weather Roundup
Issued by NWS Jackson, KY

Home | Current Version | Previous Version | Text Only | Print | Product List | Glossary Off
Versions: 1 2 3 4 5 6 7 8 9 10 11 12 13 14 15 16 17 18 19 20 21 22 23 24 25 26 27 28 29 30 31 32 33 34 35 36 37 38 39 40 41 42 43 44 45 46 47 48 49 50

000
ASUS43 KJKL 242319
RWRJKL

EAST KENTUCKY HOURLY WEATHER ROUNDUP
NATIONAL WEATHER SERVICE JACKSON KY
700 PM EDT THU APR 24 2014

NOTE: "FAIR" INDICATES FEW OR NO CLOUDS BELOW 12,000 FEET WITH
NO SIGNIFICANT WEATHER AND/OR OBSTRUCTIONS TO VISIBILITY.

* THESE REPORTS ARE NOT UNDER NWS QUALITY CONTROL AND MAY NOT
  REPORT WEATHER SUCH AS PRECIPITATION AND FOG.

KYZ079-080-083-085-087-088-110-112-115-119-120-250000
...EASTERN KENTUCKY...

CITY           SKY/WX    TMP DP  RH WIND       PRES   REMARKS
JACKSON        PTSUNNY   73  29  19 CALM      29.89F
LONDON         CLOUDY    76  35  22 S6        29.86F
SOMERSET*      PTSUNNY   73  32  21 CALM      29.86F
WILLIAMSBURG*  SUNNY     73  28  19 CALM      29.86F
MIDDLESBORO*   PTSUNNY   75  33  21 S3        29.89S
HARLAN APT*    MOCLDY    73  21  14 S3        29.90F
BLACK MTN*       N/A     63  27  25 SW6         N/A
PIKEVILLE APT* SUNNY     70  30  23 N5        29.90F
BIG SANDY*     MOCLDY    71  33  24 NE5       29.90F
ASHLAND*       SUNNY     66  27  22 SE7       29.89F
MOREHEAD APT*  CLEAR     68  30  24 MISG      29.90F
$$

KYZ035-036-041-042-044-050-067-078-099-250000
...CENTRAL KENTUCKY...

CITY           SKY/WX    TMP DP  RH WIND       PRES   REMARKS
MT STERLING*   PTSUNNY   68  36  30 E7        29.88F
FLEMING/MASON* SUNNY     66  32  28 E6        29.89F
DANVILLE*      CLOUDY    72  43  35 CALM      29.86F
RICHMOND*      CLOUDY    70  37  30 NE3       29.85F
LEXINGTON      PTSUNNY   71  39  31 E7        29.86F
FRANKFORT      CLOUDY    67  44  43 E8        29.84F
$$

KYZ091>093-OHZ055-061-077-WVZ005-015-034-035-042-250000
...SOUTHERN OHIO/WEST VIRGINIA...

CITY           SKY/WX    TMP DP  RH WIND       PRES   REMARKS
COVINGTON      CLOUDY    65  33  30 SE14      29.87F
COLUMBUS       CLOUDY    61  24  24 E6        29.94F
DAYTON         PTSUNNY   62  20  19 E15       29.89F
WILMINGTON     PTSUNNY   63  21  20 SE13      29.90F
HUNTINGTON     PTSUNNY   67  22  18 E7        29.91F
CHARLESTON     MOSUNNY   70  17  13 NE5       29.93S
PINEVILLE*     PTSUNNY   74  31  20 MISG      29.97S
BECKLEY        SUNNY     67  27  22 E5        29.95F
BLUEFIELD      MOSUNNY   73  24  16 S6        29.96F
$$

VAZ002-007-008-TNZ017-027-036-066-071-250000
...SOUTHWEST VIRGINIA/EAST TENNESSEE...

CITY           SKY/WX    TMP DP  RH WIND       PRES   REMARKS
WISE*          PTSUNNY   70  27  19 SW7       29.96F
ABINGDON*      PTSUNNY   75  17  11 W3        29.94F
BRISTOL        PTSUNNY   76  30  18 N3        29.91F
KNOXVILLE      CLOUDY    74  38  27 SW10      29.88S
OAK RIDGE      MOSUNNY   77  31  18 S9G18     29.89S
CROSSVILLE     MOSUNNY   71  36  27 S7        29.90F
NASHVILLE      PTSUNNY   77  46  33 S12       29.80F
$$

...KEY TO REMARKS...
VSB - VISIBILITY IN MILES
WCI - WIND CHILL INDEX
HX  - HEAT INDEX

$$



USA.gov is the U.S. government's official web portal to all federal, state and local government web resources and services.